| time (UTC) | temp F | wind direction | speed knots | gust knots | rain 1hr in | rain 24hr in | rain mn in | humidity % | barometer mb |
| 20260902220704 | 69 | 301 | 5.2 | 7.0 | 0.00 | 0.00 | 0.00 | 50 | 1009.2 |
| 20260902220205 | 69 | 337 | 4.3 | 7.8 | 0.00 | 0.00 | 0.00 | 51 | 1009.3 |
| 20260902215705 | 69 | 314 | 4.3 | 7.8 | 0.00 | 0.00 | 0.00 | 50 | 1009.1 |
| 20260902215205 | 69 | 326 | 5.2 | 7.8 | 0.00 | 0.00 | 0.00 | 51 | 1009.1 |
| 20260902214705 | 69 | 324 | 5.2 | 7.0 | 0.00 | 0.00 | 0.00 | 51 | 1009.1 |
| 20260902214205 | 69 | 328 | 5.2 | 7.0 | 0.00 | 0.00 | 0.00 | 51 | 1009.3 |
| 20260902213705 | 69 | 317 | 4.3 | 5.2 | 0.00 | 0.00 | 0.00 | 51 | 1009.3 |
| 20260902212204 | 68 | 342 | 6.1 | 7.8 | 0.00 | 0.00 | 0.00 | 51 | 1009.2 |
| 20260902211204 | 68 | 324 | 5.2 | 7.0 | 0.00 | 0.00 | 0.00 | 52 | 1009.5 |
| 20260902210704 | 68 | 325 | 5.2 | 6.1 | 0.00 | 0.00 | 0.00 | 53 | 1009.6 |
| 20260902210205 | 67 | 334 | 5.2 | 7.0 | 0.00 | 0.00 | 0.00 | 53 | 1009.2 |
| 20260902205704 | 67 | 337 | 6.1 | 8.7 | 0.00 | 0.00 | 0.00 | 53 | 1009.2 |
| 20260902205204 | 67 | 345 | 6.1 | 8.7 | 0.00 | 0.00 | 0.00 | 54 | 1009.2 |
| 20260902204705 | 66 | 343 | 7.0 | 8.7 | 0.00 | 0.00 | 0.00 | 54 | 1009.1 |
| 20260902203704 | 66 | 343 | 7.0 | 7.8 | 0.00 | 0.00 | 0.00 | 56 | 1008.9 |
| 20260902202704 | 66 | 333 | 6.1 | 7.8 | 0.00 | 0.00 | 0.00 | 56 | 1009.1 |
| 20260902202204 | 66 | 334 | 6.1 | 7.8 | 0.00 | 0.00 | 0.00 | 56 | 1009.1 |
| 20260902201204 | 66 | 330 | 7.8 | 10.4 | 0.00 | 0.00 | 0.00 | 56 | 1009.3 |
| 20260902200704 | 67 | 343 | 7.8 | 10.4 | 0.00 | 0.00 | 0.00 | 56 | 1009.5 |
| 20260902195704 | 67 | 351 | 8.7 | 10.4 | 0.00 | 0.00 | 0.00 | 55 | 1009.2 |
| 20260902194704 | 67 | 354 | 6.1 | 8.7 | 0.00 | 0.00 | 0.00 | 55 | 1009.3 |
| 20260902193705 | 66 | 5 | 7.8 | 10.4 | 0.00 | 0.00 | 0.00 | 55 | 1009.3 |
| 20260902193205 | 66 | 0 | 5.2 | 7.8 | 0.00 | 0.00 | 0.00 | 57 | 1009.3 |
| 20260902192704 | 66 | 348 | 7.8 | 10.4 | 0.00 | 0.00 | 0.00 | 56 | 1009.5 |
| 20260902192204 | 66 | 345 | 6.1 | 8.7 | 0.00 | 0.00 | 0.00 | 56 | 1009.3 |
| 20260902191704 | 66 | 348 | 5.2 | 10.4 | 0.00 | 0.00 | 0.00 | 56 | 1009.3 |
| 20260902191204 | 67 | 347 | 9.6 | 13.0 | 0.00 | 0.00 | 0.00 | 54 | 1009.4 |
| 20260902190705 | 67 | 347 | 10.4 | 13.0 | 0.00 | 0.00 | 0.00 | 54 | 1009.7 |
| 20260902190204 | 67 | 332 | 9.6 | 11.3 | 0.00 | 0.00 | 0.00 | 54 | 1010.2 |
| 20260902185705 | 67 | 329 | 7.8 | 10.4 | 0.00 | 0.00 | 0.00 | 53 | 1010.2 |
| 20260902185205 | 67 | 328 | 9.6 | 10.4 | 0.00 | 0.00 | 0.00 | 51 | 1010.2 |
| 20260902184705 | 67 | 330 | 7.8 | 10.4 | 0.00 | 0.00 | 0.00 | 51 | 1010.3 |
| 20260902184204 | 68 | 333 | 7.0 | 8.7 | 0.00 | 0.00 | 0.00 | 50 | 1010.3 |
| 20260902183204 | 68 | 312 | 6.1 | 7.8 | 0.00 | 0.00 | 0.00 | 50 | 1010.2 |
| 20260902182704 | 67 | 309 | 7.0 | 10.4 | 0.00 | 0.00 | 0.00 | 51 | 1010.4 |
| 20260902182205 | 67 | 308 | 7.0 | 10.4 | 0.00 | 0.00 | 0.00 | 51 | 1010.5 |
| 20260902181704 | 67 | 283 | 7.8 | 11.3 | 0.00 | 0.00 | 0.00 | 53 | 1011.1 |
| 20260902181205 | 67 | 279 | 7.8 | 10.4 | 0.00 | 0.00 | 0.00 | 53 | 1011.2 |
| 20260902180705 | 67 | 268 | 8.7 | 10.4 | 0.00 | 0.00 | 0.00 | 53 | 1011.0 |
| 20260902180204 | 67 | 267 | 8.7 | 11.3 | 0.00 | 0.00 | 0.00 | 52 | 1010.8 |
| 20260902175704 | 67 | 277 | 6.1 | 7.8 | 0.00 | 0.00 | 0.00 | 50 | 1010.5 |
| 20260902175204 | 67 | 292 | 5.2 | 7.0 | 0.00 | 0.00 | 0.00 | 50 | 1010.3 |
| 20260902174704 | 67 | 294 | 6.1 | 7.0 | 0.00 | 0.00 | 0.00 | 50 | 1010.3 |
| 20260902174204 | 67 | 309 | 6.1 | 7.8 | 0.00 | 0.00 | 0.00 | 50 | 1010.2 |
| 20260902173704 | 67 | 313 | 7.0 | 7.8 | 0.00 | 0.00 | 0.00 | 50 | 1010.3 |
| 20260902173204 | 67 | 320 | 7.0 | 8.7 | 0.00 | 0.00 | 0.00 | 50 | 1010.4 |
| 20260902172704 | 67 | 320 | 7.8 | 10.4 | 0.00 | 0.00 | 0.00 | 50 | 1010.1 |
| 20260902172204 | 67 | 328 | 7.8 | 11.3 | 0.00 | 0.00 | 0.00 | 51 | 1010.2 |
| 20260902171204 | 67 | 320 | 10.4 | 13.0 | 0.00 | 0.00 | 0.00 | 51 | 1010.3 |
| 20260902170722 | 67 | 321 | 10.4 | 13.0 | 0.00 | 0.00 | 0.00 | 51 | 1010.4 |
| 20260902170213 | 67 | 315 | 8.7 | 12.2 | 0.00 | 0.00 | 0.00 | 51 | 1010.4 |
| 20260902165707 | 67 | 300 | 8.7 | 13.0 | 0.00 | 0.00 | 0.00 | 51 | 1010.6 |
| 20260902165207 | 67 | 301 | 7.8 | 11.3 | 0.00 | 0.00 | 0.00 | 50 | 1010.4 |
| 20260902164707 | 67 | 302 | 8.7 | 12.2 | 0.00 | 0.00 | 0.00 | 50 | 1010.8 |
| 20260902164207 | 67 | 301 | 7.8 | 11.3 | 0.00 | 0.00 | 0.00 | 50 | 1010.8 |
| 20260902163707 | 67 | 308 | 7.8 | 11.3 | 0.00 | 0.00 | 0.00 | 50 | 1010.9 |
| 20260902162706 | 67 | 299 | 7.8 | 10.4 | 0.00 | 0.00 | 0.00 | 50 | 1011.1 |
| 20260902162207 | 67 | 294 | 7.0 | 10.4 | 0.00 | 0.00 | 0.00 | 51 | 1011.3 |
| 20260902161206 | 67 | 294 | 7.8 | 11.3 | 0.00 | 0.00 | 0.00 | 51 | 1011.4 |
| 20260902160707 | 67 | 297 | 8.7 | 11.3 | 0.00 | 0.00 | 0.00 | 51 | 1011.1 |
| 20260902160207 | 66 | 295 | 8.7 | 10.4 | 0.00 | 0.00 | 0.00 | 51 | 1011.4 |
| 20260902155706 | 66 | 306 | 8.7 | 10.4 | 0.00 | 0.00 | 0.00 | 52 | 1011.4 |
| 20260902155206 | 66 | 306 | 8.7 | 11.3 | 0.00 | 0.00 | 0.00 | 52 | 1011.5 |
| 20260902154206 | 66 | 312 | 8.7 | 10.4 | 0.00 | 0.00 | 0.00 | 52 | 1011.8 |
| 20260902153707 | 66 | 307 | 8.7 | 10.4 | 0.00 | 0.00 | 0.00 | 52 | 1011.6 |
| 20260902153207 | 66 | 306 | 7.8 | 10.4 | 0.00 | 0.00 | 0.00 | 52 | 1011.8 |
| 20260902152706 | 66 | 307 | 7.8 | 10.4 | 0.00 | 0.00 | 0.00 | 52 | 1011.7 |
| 20260902152207 | 66 | 314 | 7.8 | 8.7 | 0.00 | 0.00 | 0.00 | 52 | 1011.8 |
| 20260902151707 | 66 | 319 | 7.8 | 8.7 | 0.00 | 0.00 | 0.00 | 51 | 1011.7 |
| 20260902151207 | 66 | 321 | 6.1 | 7.8 | 0.00 | 0.00 | 0.00 | 51 | 1012.1 |
| 20260902150707 | 67 | 320 | 6.1 | 7.0 | 0.00 | 0.00 | 0.00 | 50 | 1012.1 |
| 20260902150207 | 67 | 317 | 7.0 | 8.7 | 0.00 | 0.00 | 0.00 | 49 | 1012.2 |
| 20260902145707 | 67 | 318 | 7.8 | 10.4 | 0.00 | 0.00 | 0.00 | 49 | 1012.1 |
| 20260902145206 | 67 | 316 | 6.1 | 7.0 | 0.00 | 0.00 | 0.00 | 49 | 1012.2 |
| 20260902144706 | 67 | 325 | 6.1 | 6.1 | 0.00 | 0.00 | 0.00 | 49 | 1012.3 |
| 20260902144206 | 67 | 328 | 6.1 | 6.1 | 0.00 | 0.00 | 0.00 | 49 | 1012.3 |
| 20260902143707 | 67 | 328 | 6.1 | 7.0 | 0.00 | 0.00 | 0.00 | 49 | 1012.4 |
| 20260902143207 | 67 | 341 | 6.1 | 7.0 | 0.00 | 0.00 | 0.00 | 49 | 1012.4 |
| 20260902142706 | 67 | 341 | 6.1 | 7.0 | 0.00 | 0.00 | 0.00 | 49 | 1012.5 |
| 20260902142207 | 67 | 341 | 6.1 | 7.0 | 0.00 | 0.00 | 0.00 | 49 | 1012.5 |
| 20260902141706 | 67 | 341 | 5.2 | 7.0 | 0.00 | 0.00 | 0.00 | 49 | 1012.6 |
| 20260902140706 | 67 | 341 | 5.2 | 6.1 | 0.00 | 0.00 | 0.00 | 51 | 1012.8 |
| 20260902140207 | 67 | 341 | 6.1 | 7.0 | 0.00 | 0.00 | 0.00 | 50 | 1013.0 |
| 20260902135707 | 67 | 341 | 6.1 | 7.0 | 0.00 | 0.00 | 0.00 | 49 | 1013.1 |
| 20260902135206 | 67 | 341 | 5.2 | 6.1 | 0.00 | 0.00 | 0.00 | 49 | 1013.1 |
| 20260902134707 | 68 | 341 | 5.2 | 7.0 | 0.00 | 0.00 | 0.00 | 49 | 1012.9 |
| 20260902134206 | 68 | 339 | 6.1 | 7.0 | 0.00 | 0.00 | 0.00 | 47 | 1012.8 |
| 20260902133706 | 68 | 339 | 6.1 | 7.8 | 0.00 | 0.00 | 0.00 | 46 | 1012.8 |
| 20260902133207 | 69 | 338 | 7.0 | 7.8 | 0.00 | 0.00 | 0.00 | 46 | 1012.9 |
| 20260902132707 | 69 | 339 | 7.0 | 7.8 | 0.00 | 0.00 | 0.00 | 45 | 1013.0 |
| 20260902132206 | 69 | 334 | 7.0 | 8.7 | 0.00 | 0.00 | 0.00 | 44 | 1013.3 |
| 20260902131707 | 69 | 332 | 7.8 | 10.4 | 0.00 | 0.00 | 0.00 | 44 | 1013.2 |
| 20260902131206 | 69 | 334 | 7.8 | 8.7 | 0.00 | 0.00 | 0.00 | 44 | 1013.2 |
| 20260902130207 | 70 | 339 | 7.8 | 8.7 | 0.00 | 0.00 | 0.00 | 42 | 1013.3 |
| 20260902125707 | 70 | 334 | 8.7 | 10.4 | 0.00 | 0.00 | 0.00 | 42 | 1013.5 |
| 20260902125206 | 70 | 331 | 8.7 | 10.4 | 0.00 | 0.00 | 0.00 | 41 | 1013.5 |
| 20260902124706 | 70 | 330 | 9.6 | 10.4 | 0.00 | 0.00 | 0.00 | 41 | 1013.4 |
| 20260902124206 | 70 | 325 | 8.7 | 10.4 | 0.00 | 0.00 | 0.00 | 41 | 1013.5 |
| 20260902123707 | 70 | 322 | 7.8 | 8.7 | 0.00 | 0.00 | 0.00 | 40 | 1013.6 |
| 20260902123206 | 70 | 321 | 7.8 | 8.7 | 0.00 | 0.00 | 0.00 | 40 | 1013.6 |
| 20260902122706 | 70 | 319 | 7.8 | 8.7 | 0.00 | 0.00 | 0.00 | 40 | 1013.6 |
| 20260902122206 | 71 | 314 | 7.8 | 8.7 | 0.00 | 0.00 | 0.00 | 41 | 1013.6 |
| 20260902121707 | 71 | 311 | 7.8 | 8.7 | 0.00 | 0.00 | 0.00 | 40 | 1013.7 |
| 20260902121206 | 72 | 309 | 8.7 | 10.4 | 0.00 | 0.00 | 0.00 | 38 | 1013.8 |
| 20260902120707 | 71 | 302 | 8.7 | 10.4 | 0.00 | 0.00 | 0.00 | 39 | 1013.8 |
| 20260902120207 | 71 | 295 | 8.7 | 10.4 | 0.00 | 0.00 | 0.00 | 40 | 1013.8 |
| 20260902115707 | 71 | 298 | 7.8 | 8.7 | 0.00 | 0.00 | 0.00 | 40 | 1013.8 |
| 20260902115207 | 71 | 301 | 7.0 | 7.8 | 0.00 | 0.00 | 0.00 | 40 | 1013.8 |
| 20260902114706 | 72 | 303 | 7.0 | 8.7 | 0.00 | 0.00 | 0.00 | 38 | 1013.9 |
| 20260902114206 | 72 | 296 | 7.8 | 7.8 | 0.00 | 0.00 | 0.00 | 38 | 1013.8 |
| 20260902113706 | 72 | 298 | 7.0 | 7.8 | 0.00 | 0.00 | 0.00 | 38 | 1013.9 |
| 20260902112707 | 72 | 302 | 7.0 | 7.8 | 0.00 | 0.00 | 0.00 | 38 | 1013.9 |
| 20260902111707 | 71 | 304 | 7.0 | 7.8 | 0.00 | 0.00 | 0.00 | 39 | 1014.2 |
| 20260902111207 | 71 | 310 | 7.0 | 7.8 | 0.00 | 0.00 | 0.00 | 39 | 1014.1 |
| 20260902110706 | 71 | 318 | 5.2 | 7.0 | 0.00 | 0.00 | 0.00 | 40 | 1014.1 |
| 20260902110206 | 71 | 297 | 5.2 | 6.1 | 0.00 | 0.00 | 0.00 | 40 | 1014.4 |
| 20260902105207 | 71 | 299 | 7.8 | 10.4 | 0.00 | 0.00 | 0.00 | 39 | 1014.3 |
| 20260902104706 | 71 | 306 | 8.7 | 10.4 | 0.00 | 0.00 | 0.00 | 40 | 1014.2 |
| 20260902104206 | 72 | 294 | 5.2 | 8.7 | 0.00 | 0.00 | 0.00 | 40 | 1014.3 |
| 20260902103706 | 72 | 270 | 7.8 | 8.7 | 0.00 | 0.00 | 0.00 | 38 | 1014.1 |
| 20260902103206 | 72 | 269 | 7.0 | 7.8 | 0.00 | 0.00 | 0.00 | 38 | 1014.1 |
| 20260902102706 | 73 | 269 | 6.1 | 7.8 | 0.00 | 0.00 | 0.00 | 37 | 1014.2 |
| 20260902102207 | 73 | 275 | 6.1 | 7.8 | 0.00 | 0.00 | 0.00 | 37 | 1014.0 |
| 20260902101706 | 73 | 288 | 6.1 | 7.0 | 0.00 | 0.00 | 0.00 | 37 | 1014.1 |
| 20260902101206 | 73 | 291 | 6.1 | 8.7 | 0.00 | 0.00 | 0.00 | 37 | 1014.0 |
| 20260902100706 | 73 | 292 | 7.0 | 7.8 | 0.00 | 0.00 | 0.00 | 37 | 1014.1 |
| 20260902100206 | 73 | 298 | 7.0 | 7.8 | 0.00 | 0.00 | 0.00 | 37 | 1013.9 |
| 20260902095706 | 73 | 299 | 7.0 | 7.8 | 0.00 | 0.00 | 0.00 | 37 | 1013.9 |
| 20260902095207 | 73 | 295 | 7.0 | 7.8 | 0.00 | 0.00 | 0.00 | 38 | 1013.9 |
| 20260902094206 | 73 | 284 | 6.1 | 7.0 | 0.00 | 0.00 | 0.00 | 37 | 1013.9 |
| 20260902093706 | 73 | 282 | 6.1 | 7.0 | 0.00 | 0.00 | 0.00 | 38 | 1013.9 |
| 20260902093206 | 73 | 288 | 6.1 | 7.0 | 0.00 | 0.00 | 0.00 | 37 | 1013.7 |
| 20260902092706 | 74 | 281 | 7.0 | 7.8 | 0.00 | 0.00 | 0.00 | 36 | 1013.7 |
| 20260902092206 | 74 | 270 | 6.1 | 7.8 | 0.00 | 0.00 | 0.00 | 36 | 1013.7 |
| 20260902091706 | 74 | 278 | 7.0 | 8.7 | 0.00 | 0.00 | 0.00 | 35 | 1013.6 |
| 20260902090706 | 74 | 288 | 7.0 | 8.7 | 0.00 | 0.00 | 0.00 | 36 | 1013.4 |
| 20260902090206 | 74 | 291 | 7.0 | 7.8 | 0.00 | 0.00 | 0.00 | 36 | 1013.4 |
| 20260902085706 | 73 | 302 | 7.0 | 8.7 | 0.00 | 0.00 | 0.00 | 37 | 1013.5 |
| 20260902085206 | 73 | 328 | 6.1 | 8.7 | 0.00 | 0.00 | 0.00 | 37 | 1013.4 |
| 20260902084706 | 74 | 301 | 4.3 | 5.2 | 0.00 | 0.00 | 0.00 | 36 | 1013.3 |
| 20260902084206 | 74 | 275 | 4.3 | 6.1 | 0.00 | 0.00 | 0.00 | 36 | 1013.2 |
| 20260902083706 | 74 | 267 | 6.1 | 7.0 | 0.00 | 0.00 | 0.00 | 36 | 1013.2 |
| 20260902083206 | 74 | 258 | 6.1 | 7.0 | 0.00 | 0.00 | 0.00 | 36 | 1013.2 |
| 20260902082206 | 75 | 265 | 6.1 | 7.8 | 0.00 | 0.00 | 0.00 | 35 | 1013.0 |
| 20260902081706 | 75 | 260 | 6.1 | 7.8 | 0.00 | 0.00 | 0.00 | 35 | 1013.0 |
| 20260902081206 | 75 | 260 | 7.0 | 8.7 | 0.00 | 0.00 | 0.00 | 34 | 1013.0 |
| 20260902080706 | 76 | 264 | 7.0 | 8.7 | 0.00 | 0.00 | 0.00 | 33 | 1013.3 |
| 20260902080206 | 76 | 262 | 7.0 | 10.4 | 0.00 | 0.00 | 0.00 | 33 | 1013.0 |
| 20260902073706 | 77 | 264 | 7.0 | 8.7 | 0.00 | 0.00 | 0.00 | 32 | 1012.6 |
| 20260902073206 | 77 | 264 | 7.0 | 8.7 | 0.00 | 0.00 | 0.00 | 32 | 1012.5 |
| 20260902072706 | 77 | 262 | 7.0 | 8.7 | 0.00 | 0.00 | 0.00 | 32 | 1012.7 |
| 20260902071706 | 78 | 263 | 7.8 | 8.7 | 0.00 | 0.00 | 0.00 | 31 | 1012.3 |
| 20260902071206 | 78 | 267 | 8.7 | 12.2 | 0.00 | 0.00 | 0.00 | 30 | 1012.4 |
| 20260902070705 | 78 | 264 | 8.7 | 13.0 | 0.00 | 0.00 | 0.00 | 30 | 1012.3 |
| 20260902070206 | 79 | 265 | 8.7 | 14.8 | 0.00 | 0.00 | 0.00 | 29 | 1012.4 |
| 20260902065706 | 79 | 273 | 12.2 | 17.4 | 0.00 | 0.00 | 0.00 | 29 | 1012.3 |
| 20260902065206 | 79 | 254 | 12.2 | 17.4 | 0.00 | 0.00 | 0.00 | 28 | 1012.2 |
| 20260902064205 | 79 | 268 | 11.3 | 18.2 | 0.00 | 0.00 | 0.00 | 28 | 1012.2 |
| 20260902063706 | 79 | 271 | 14.8 | 19.1 | 0.00 | 0.00 | 0.00 | 28 | 1012.3 |
| 20260902063206 | 80 | 261 | 17.4 | 22.6 | 0.00 | 0.00 | 0.00 | 28 | 1012.1 |
| 20260902062205 | 80 | 256 | 13.0 | 18.2 | 0.00 | 0.00 | 0.00 | 28 | 1012.2 |
| 20260902060706 | 80 | 274 | 9.6 | 14.8 | 0.00 | 0.00 | 0.00 | 28 | 1012.3 |
| 20260902060205 | 79 | 279 | 13.0 | 17.4 | 0.00 | 0.00 | 0.00 | 27 | 1012.2 |
| 20260902055705 | 80 | 270 | 11.3 | 15.6 | 0.00 | 0.00 | 0.00 | 27 | 1012.1 |
| 20260902055205 | 79 | 264 | 12.2 | 19.1 | 0.00 | 0.00 | 0.00 | 27 | 1012.0 |
| 20260902054705 | 79 | 281 | 11.3 | 17.4 | 0.00 | 0.00 | 0.00 | 28 | 1012.1 |
| 20260902054206 | 79 | 266 | 13.9 | 20.0 | 0.00 | 0.00 | 0.00 | 27 | 1012.1 |
| 20260902053705 | 80 | 276 | 14.8 | 21.7 | 0.00 | 0.00 | 0.00 | 27 | 1012.2 |
| 20260902053205 | 80 | 272 | 12.2 | 21.7 | 0.00 | 0.00 | 0.00 | 27 | 1012.1 |
| 20260902052706 | 80 | 246 | 12.2 | 19.1 | 0.00 | 0.00 | 0.00 | 27 | 1012.3 |
| 20260902052205 | 80 | 273 | 12.2 | 20.0 | 0.00 | 0.00 | 0.00 | 27 | 1012.3 |
| 20260902051706 | 80 | 271 | 8.7 | 14.8 | 0.00 | 0.00 | 0.00 | 27 | 1012.2 |
| 20260902051206 | 80 | 262 | 11.3 | 20.0 | 0.00 | 0.00 | 0.00 | 27 | 1012.1 |
| 20260902050706 | 80 | 277 | 15.6 | 20.9 | 0.00 | 0.00 | 0.00 | 27 | 1012.3 |
| 20260902050205 | 80 | 263 | 10.4 | 17.4 | 0.00 | 0.00 | 0.00 | 27 | 1012.1 |
| 20260902045706 | 80 | 248 | 10.4 | 17.4 | 0.00 | 0.00 | 0.00 | 27 | 1012.2 |
| 20260902045206 | 81 | 248 | 5.2 | 13.0 | 0.00 | 0.00 | 0.00 | 28 | 1012.1 |
| 20260902044705 | 80 | 234 | 7.0 | 10.4 | 0.00 | 0.00 | 0.00 | 29 | 1012.0 |
| 20260902043705 | 80 | 264 | 7.0 | 10.4 | 0.00 | 0.00 | 0.00 | 29 | 1012.1 |
| 20260902043205 | 80 | 241 | 7.0 | 10.4 | 0.00 | 0.00 | 0.00 | 28 | 1012.1 |
| 20260902042705 | 81 | 246 | 10.4 | 12.2 | 0.00 | 0.00 | 0.00 | 28 | 1012.1 |
| 20260902040705 | 80 | 269 | 11.3 | 15.6 | 0.00 | 0.00 | 0.00 | 29 | 1012.0 |
| 20260902040205 | 79 | 272 | 12.2 | 21.7 | 0.00 | 0.00 | 0.00 | 30 | 1012.1 |
| 20260902035706 | 79 | 296 | 8.7 | 17.4 | 0.00 | 0.00 | 0.00 | 30 | 1011.9 |
| 20260902035206 | 79 | 283 | 12.2 | 14.8 | 0.00 | 0.00 | 0.00 | 30 | 1012.1 |
| 20260902034205 | 78 | 297 | 12.2 | 20.9 | 0.00 | 0.00 | 0.00 | 29 | 1012.3 |
| 20260902033705 | 79 | 299 | 14.8 | 19.1 | 0.00 | 0.00 | 0.00 | 29 | 1012.3 |
| 20260902033205 | 79 | 267 | 7.8 | 11.3 | 0.00 | 0.00 | 0.00 | 30 | 1012.4 |
| 20260902032706 | 79 | 273 | 8.7 | 13.0 | 0.00 | 0.00 | 0.00 | 30 | 1012.5 |
| 20260902032205 | 79 | 289 | 13.9 | 17.4 | 0.00 | 0.00 | 0.00 | 29 | 1012.4 |
| 20260902031705 | 80 | 270 | 10.4 | 18.2 | 0.00 | 0.00 | 0.00 | 29 | 1012.6 |
| 20260902031205 | 79 | 287 | 6.1 | 14.8 | 0.00 | 0.00 | 0.00 | 30 | 1012.8 |
| 20260902030705 | 79 | 306 | 10.4 | 13.0 | 0.00 | 0.00 | 0.00 | 30 | 1013.0 |
| 20260902030206 | 79 | 327 | 10.4 | 17.4 | 0.00 | 0.00 | 0.00 | 30 | 1012.8 |
| 20260902025705 | 78 | 289 | 14.8 | 20.0 | 0.00 | 0.00 | 0.00 | 30 | 1012.9 |
| 20260902025205 | 78 | 316 | 11.3 | 17.4 | 0.00 | 0.00 | 0.00 | 30 | 1013.0 |
| 20260902024706 | 79 | 292 | 10.4 | 13.9 | 0.00 | 0.00 | 0.00 | 29 | 1013.2 |
| 20260902024205 | 79 | 267 | 12.2 | 18.2 | 0.00 | 0.00 | 0.00 | 29 | 1013.3 |
| 20260902023706 | 79 | 280 | 13.9 | 19.1 | 0.00 | 0.00 | 0.00 | 30 | 1013.2 |
| 20260902022705 | 79 | 280 | 7.8 | 20.9 | 0.00 | 0.00 | 0.00 | 31 | 1013.4 |
| 20260902022205 | 78 | 274 | 13.9 | 20.0 | 0.00 | 0.00 | 0.00 | 31 | 1013.5 |
| 20260902021205 | 78 | 301 | 10.4 | 19.1 | 0.00 | 0.00 | 0.00 | 32 | 1013.9 |
| 20260902020705 | 78 | 287 | 13.0 | 19.1 | 0.00 | 0.00 | 0.00 | 32 | 1013.9 |
| 20260902020205 | 78 | 297 | 14.8 | 19.1 | 0.00 | 0.00 | 0.00 | 32 | 1014.2 |
| 20260902015705 | 78 | 306 | 8.7 | 17.4 | 0.00 | 0.00 | 0.00 | 33 | 1014.1 |
| 20260902015205 | 78 | 300 | 10.4 | 13.9 | 0.00 | 0.00 | 0.00 | 33 | 1014.1 |
| 20260902014705 | 77 | 318 | 4.3 | 12.2 | 0.00 | 0.00 | 0.00 | 36 | 1014.2 |
| 20260902014205 | 77 | 339 | 8.7 | 12.2 | 0.00 | 0.00 | 0.00 | 37 | 1014.6 |
| 20260902013706 | 76 | 303 | 7.8 | 14.8 | 0.00 | 0.00 | 0.00 | 36 | 1014.4 |
| 20260902013205 | 76 | 343 | 7.0 | 13.0 | 0.00 | 0.00 | 0.00 | 37 | 1014.6 |
| 20260902012705 | 76 | 316 | 11.3 | 18.2 | 0.00 | 0.00 | 0.00 | 37 | 1014.8 |
| 20260902012205 | 76 | 314 | 12.2 | 17.4 | 0.00 | 0.00 | 0.00 | 37 | 1015.0 |
| 20260902011705 | 76 | 301 | 11.3 | 17.4 | 0.00 | 0.00 | 0.00 | 38 | 1015.1 |
| 20260902011205 | 75 | 313 | 10.4 | 15.6 | 0.00 | 0.00 | 0.00 | 38 | 1015.2 |
| 20260902010705 | 75 | 303 | 11.3 | 14.8 | 0.00 | 0.00 | 0.00 | 38 | 1015.3 |
| 20260902010205 | 75 | 298 | 10.4 | 14.8 | 0.00 | 0.00 | 0.00 | 39 | 1015.4 |
| 20260902005705 | 74 | 316 | 10.4 | 15.6 | 0.00 | 0.00 | 0.00 | 39 | 1015.4 |
| 20260902005205 | 74 | 327 | 12.2 | 17.4 | 0.00 | 0.00 | 0.00 | 40 | 1015.5 |
| 20260902004705 | 74 | 308 | 12.2 | 18.2 | 0.00 | 0.00 | 0.00 | 40 | 1015.4 |
| 20260902004206 | 74 | 301 | 13.9 | 18.2 | 0.00 | 0.00 | 0.00 | 40 | 1015.6 |
| 20260902003705 | 73 | 316 | 13.0 | 17.4 | 0.00 | 0.00 | 0.00 | 41 | 1015.7 |
| 20260902003205 | 72 | 320 | 11.3 | 15.6 | 0.00 | 0.00 | 0.00 | 41 | 1015.7 |
| 20260902002705 | 72 | 314 | 13.9 | 19.1 | 0.00 | 0.00 | 0.00 | 42 | 1015.9 |
| 20260902002205 | 72 | 315 | 18.2 | 20.9 | 0.00 | 0.00 | 0.00 | 42 | 1015.8 |
| 20260902001704 | 72 | 318 | 7.8 | 18.2 | 0.00 | 0.00 | 0.00 | 42 | 1015.7 |
| 20260902001205 | 72 | 321 | 11.3 | 17.4 | 0.00 | 0.00 | 0.00 | 42 | 1015.8 |
| 20260902000705 | 72 | 326 | 7.8 | 14.8 | 0.00 | 0.00 | 0.00 | 43 | 1016.1 |
| 20260901235705 | 72 | 319 | 15.6 | 20.9 | 0.00 | 0.00 | 0.00 | 41 | 1016.0 |
| 20260901235205 | 72 | 319 | 14.8 | 20.0 | 0.00 | 0.00 | 0.00 | 41 | 1016.0 |
| 20260901234705 | 72 | 322 | 12.2 | 17.4 | 0.00 | 0.00 | 0.00 | 42 | 1016.1 |
| 20260901234205 | 71 | 332 | 12.2 | 17.4 | 0.00 | 0.00 | 0.00 | 44 | 1016.1 |
| 20260901232705 | 70 | 329 | 8.7 | 15.6 | 0.00 | 0.00 | 0.00 | 46 | 1016.4 |
| 20260901232205 | 69 | 333 | 10.4 | 17.4 | 0.00 | 0.00 | 0.00 | 47 | 1016.5 |
| 20260901231205 | 68 | 328 | 8.7 | 11.3 | 0.00 | 0.00 | 0.00 | 50 | 1016.6 |
| 20260901230704 | 68 | 331 | 8.7 | 10.4 | 0.00 | 0.00 | 0.00 | 49 | 1016.5 |
| 20260901230204 | 68 | 335 | 7.0 | 10.4 | 0.00 | 0.00 | 0.00 | 49 | 1016.6 |
| 20260901225705 | 68 | 324 | 7.8 | 11.3 | 0.00 | 0.00 | 0.00 | 49 | 1016.5 |
| 20260901225205 | 67 | 330 | 9.6 | 12.2 | 0.00 | 0.00 | 0.00 | 50 | 1016.7 |
| 20260901224705 | 67 | 322 | 10.4 | 13.0 | 0.00 | 0.00 | 0.00 | 50 | 1016.6 |
| 20260901224204 | 67 | 323 | 10.4 | 12.2 | 0.00 | 0.00 | 0.00 | 50 | 1016.5 |
| 20260901223704 | 67 | 321 | 10.4 | 12.2 | 0.00 | 0.00 | 0.00 | 50 | 1016.6 |
| 20260901223206 | 66 | 326 | 8.7 | 12.2 | 0.00 | 0.00 | 0.00 | 51 | 1016.8 |
| 20260901222705 | 66 | 326 | 9.6 | 12.2 | 0.00 | 0.00 | 0.00 | 51 | 1016.6 |
| 20260901221704 | 66 | 328 | 8.7 | 12.2 | 0.00 | 0.00 | 0.00 | 52 | 1016.7 |
| 20260901221205 | 65 | 323 | 8.7 | 11.3 | 0.00 | 0.00 | 0.00 | 52 | 1016.8 |